[[{"header":{"parameterUnit":"m.s-1","parameterCategory":1,"la1":30.2991,"la2":30.254,"lo1":-89.0895,"lo2":-89.0444,"dy":0.0017,"dx":0.0017,"nx":28,"ny":28,"refTime":"2025-09-18T21:00:00:Z","depth":0,"parameterNumber":2,"parameterNumberName":"U-component_of_WINDS"},"data":[0,0,0,0,0,0,0,0,0,0,0,0,0,0,0,0,0,0,0,0,0,0,0,0,0,0,0,0,0,0,0,0,0,0,0,0,0,0,0,0,0,0,0,0,0,0,0,0,0,0,0,0,0,0,0,0,0,0,2.5131,2.5132,0,2.5275,2.5276,2.5278,2.5317,2.5316,2.5315,2.5314,2.5459,2.5464,2.5468,0,0,0,0,0,0,0,0,0,0,0,0,0,2.4885,2.489,2.513,2.5132,2.5134,2.5274,2.5276,2.5278,2.5317,2.5316,2.5315,2.5314,2.5458,2.5463,2.5469,0,0,0,0,0,0,0,0,0,0,0,0,0,2.5007,2.4891,2.513,2.517,2.5175,2.5274,2.5277,2.5279,2.5317,2.5316,2.5315,2.5313,2.5456,2.5463,2.547,2.5538,0,0,2.5491,2.5494,0,0,0,0,0,0,0,0,2.5,2.5016,2.5163,2.5168,2.5173,2.5277,2.5243,2.5366,2.5317,2.5263,2.5314,2.5313,2.5399,2.5411,2.5441,2.5545,2.5551,2.5491,2.5496,2.5499,2.5501,0,0,0,0,0,0,0,2.4991,2.501,2.5187,2.5165,2.5171,2.518,2.5196,2.5267,2.5336,2.5268,2.5271,2.5288,2.5402,2.5434,2.5444,2.5553,2.5491,2.5497,2.5502,2.5505,2.572,2.5721,0,0,0,0,0,0,2.4977,2.5003,2.5183,2.5192,2.5082,2.5186,2.5203,2.5245,2.5336,2.5349,2.5289,2.5289,2.5422,2.5436,2.545,2.5534,2.5499,2.5505,2.5509,2.5718,2.572,2.5722,0,0,0,0,0,0,2.4971,2.4992,2.5177,2.5098,2.5122,2.5191,2.5237,2.5248,2.528,2.5352,2.5364,2.5308,2.5422,2.544,2.5516,2.554,2.5508,2.5515,2.5716,2.5719,2.5721,2.5705,0,0,0,0,0,0,2.4964,2.499,2.5017,2.5099,2.5126,2.5241,2.5239,2.5252,2.5292,2.5294,2.5373,2.5385,2.5422,2.5505,2.5523,2.5549,2.552,2.5714,2.5717,2.572,2.5704,2.5707,2.5709,0,0,0,0,0,2.4955,2.5007,2.5018,2.504,2.5162,2.5243,2.5258,2.5301,2.5294,2.5321,2.5367,2.5383,2.5535,2.5512,2.5533,2.5561,2.5713,2.5717,2.572,2.5703,2.5706,2.5709,0,0,0,0,0,0,2.4925,2.5018,2.5032,2.5112,2.5169,2.5249,2.5285,2.5303,2.5363,2.5362,2.5412,2.5429,2.5501,2.554,2.5513,2.5632,2.5624,2.5632,2.5604,2.5608,2.5611,2.5599,2.5526,0,0,0,0,0,2.4928,2.4987,2.5065,2.5127,2.5156,2.5215,2.5252,2.528,2.5341,2.5365,2.5417,2.5474,2.5535,2.5574,2.5634,2.571,2.5727,2.574,2.5743,2.5745,2.575,2.5792,2.5798,2.5733,2.5733,2.5733,0,0,2.4934,2.4992,2.5026,2.5123,2.5171,2.5229,2.5235,2.5297,2.5341,2.5374,2.5449,2.5489,2.5557,2.5632,2.5669,2.5666,2.5772,2.5749,2.575,2.5754,2.5796,2.5802,2.5807,2.5735,2.5735,2.5734,0,0,2.4975,2.5026,2.5083,2.5131,2.5204,2.5243,2.5257,2.5335,2.5363,2.5439,2.5465,2.5517,2.5621,2.5668,2.5706,2.5765,2.5781,2.5783,2.5796,2.5837,2.5842,2.5846,2.5866,2.5873,2.5789,2.5789,2.5789,0,2.4973,2.5063,2.511,2.5171,2.5212,2.5246,2.5304,2.5348,2.5436,2.5463,2.546,2.5591,2.5639,2.5726,2.5741,2.5771,2.5787,2.5773,2.5838,2.5843,2.5848,2.5867,2.5874,2.5789,2.5789,2.5789,2.5789,0,2.5056,2.5119,2.5156,2.5241,2.5287,2.5346,2.54,2.5441,2.5465,2.5504,2.5581,2.564,2.5713,2.5736,2.576,2.5826,2.5822,2.5828,2.582,2.5853,2.5872,2.5879,2.5788,2.5788,2.5788,2.5788,0,0,2.508,2.5192,2.5204,2.5243,2.5326,2.5374,2.5435,2.5506,2.5539,2.56,2.565,2.5738,2.5744,2.5786,2.5816,2.5852,2.5893,2.5853,2.5855,2.5857,2.5968,2.5962,2.5969,2.5905,2.5907,2.5908,2.5962,0,2.513,2.524,2.5283,2.5372,2.5429,2.5463,2.5516,2.5572,2.5611,2.5664,2.5707,2.5768,2.5771,2.5797,2.5834,2.588,2.5916,2.5877,2.5951,2.5953,2.5931,2.598,2.5973,2.6021,2.5969,2.5971,2.5972,0,2.5202,2.5263,2.5357,2.5434,2.5459,2.5505,2.5574,2.5626,2.569,2.5716,2.5764,2.5792,2.5855,2.5845,2.5933,2.5905,2.5939,2.5966,2.5969,2.5975,2.5963,2.5986,2.6037,2.6044,2.5984,2.5983,2.5982,0,2.5207,2.5314,2.5384,2.5416,2.5507,2.5539,2.5578,2.5641,2.5681,2.5742,2.5768,2.5834,2.587,2.5921,2.5966,2.5955,2.6049,2.6043,2.607,2.6069,2.6087,2.6084,2.6142,2.6111,2.6111,2.6111,2.6111,0,2.5257,2.5313,2.5388,2.543,2.5494,2.5544,2.5605,2.5646,2.5702,2.5753,2.5787,2.5833,2.5891,2.5945,2.5981,2.6047,2.6063,2.6085,2.6093,2.6081,2.6077,2.6101,2.6098,2.6113,2.6113,2.6112,2.6112,0,2.5273,2.5326,2.5404,2.5484,2.5506,2.5548,2.5617,2.5659,2.57,2.5764,2.5781,2.5845,2.591,2.5961,2.6046,2.607,2.6139,2.6149,2.6117,2.6121,2.6145,2.6141,2.6218,2.623,2.6193,2.6193,2.6193,0,2.53,2.5344,2.5429,2.5466,2.5505,2.5564,2.5605,2.5657,2.5698,2.5775,2.5808,2.5875,2.5932,2.6034,2.6088,2.6153,2.6163,2.6186,2.6173,2.6159,2.6162,2.6158,2.6162,2.6187,2.6187,2.6187,2.6187,0,2.5341,2.5366,2.5425,2.5493,2.5542,2.5598,2.5654,2.5682,2.5743,2.5788,2.5856,2.59,2.5987,2.6053,2.6123,2.6163,2.6185,2.6191,2.6201,2.6187,2.6166,2.6176,2.6119,2.6189,2.6188,2.6188,2.6188,2.6188,2.5363,2.5403,2.5469,2.5534,2.5582,2.5634,2.5678,2.5725,2.5782,2.5857,2.5884,2.5953,2.6016,2.6113,2.6153,2.6207,2.6208,2.6222,2.6226,2.6228,2.6226,2.6159,2.6221,2.6221,2.6221,2.6221,2.6221,0,2.5404,2.5449,2.5508,2.5587,2.5637,2.5656,2.5719,2.576,2.582,2.5878,2.5933,2.601,2.6075,2.6134,2.6201,2.6233,2.6245,2.6249,2.6246,2.6255,2.6222,2.6206,2.6238,2.6238,2.6238,2.6238,2.6238,2.6238,2.5432,2.5501,2.5533,2.5626,2.567,2.5739,2.5773,2.5821,2.5867,2.5952,2.6007,2.6045,2.6103,2.6175,2.6235,2.6251,2.6273,2.6274,2.6292,2.626,2.6257,2.6255,2.624,2.6279,2.6279,2.632,2.632,2.6321]},{"header":{"parameterUnit":"m.s-1","parameterCategory":1,"la1":30.2991,"la2":30.254,"lo1":-89.0895,"lo2":-89.0444,"dy":0.0017,"dx":0.0017,"nx":28,"ny":28,"refTime":"2025-09-18T21:00:00:Z","depth":0,"parameterNumber":3,"parameterNumberName":"V-component_of_WINDS"},"data":[0,0,0,0,0,0,0,0,0,0,0,0,0,0,0,0,0,0,0,0,0,0,0,0,0,0,0,0,0,0,0,0,0,0,0,0,0,0,0,0,0,0,0,0,0,0,0,0,0,0,0,0,0,0,0,0,0,0,3.4976,3.4976,0,3.4939,3.4938,3.4938,3.488,3.4879,3.4878,3.4877,3.4838,3.4838,3.4838,0,0,0,0,0,0,0,0,0,0,0,0,0,3.4998,3.4998,3.4976,3.4976,3.4975,3.4939,3.4938,3.4938,3.488,3.4879,3.4878,3.4876,3.4838,3.4838,3.4838,0,0,0,0,0,0,0,0,0,0,0,0,0,3.4978,3.4998,3.4976,3.4942,3.4939,3.4939,3.4938,3.4938,3.488,3.4879,3.4877,3.4876,3.4838,3.4838,3.4838,3.4869,0,0,3.4838,3.4838,0,0,0,0,0,0,0,0,3.4979,3.4977,3.4948,3.4945,3.4941,3.4912,3.4932,3.4914,3.4881,3.4903,3.4877,3.4875,3.4864,3.4862,3.4858,3.4867,3.4865,3.4838,3.4838,3.4838,3.4838,0,0,0,0,0,0,0,3.498,3.4978,3.4961,3.4947,3.4943,3.4929,3.4924,3.4928,3.4892,3.49,3.4896,3.4893,3.4862,3.4858,3.4857,3.4865,3.4838,3.4838,3.4838,3.4838,3.4896,3.4897,0,0,0,0,0,0,3.4987,3.498,3.4963,3.496,3.4956,3.493,3.4924,3.4923,3.4892,3.4886,3.4894,3.489,3.4859,3.4857,3.4855,3.4888,3.4838,3.4838,3.4838,3.4894,3.4896,3.4898,0,0,0,0,0,0,3.4988,3.4986,3.4964,3.4969,3.4965,3.4931,3.493,3.4923,3.4919,3.4887,3.4881,3.4897,3.4858,3.4855,3.4866,3.4886,3.4838,3.4837,3.4892,3.4895,3.4897,3.4955,0,0,0,0,0,0,3.4988,3.4987,3.4998,3.497,3.4965,3.4975,3.4931,3.4923,3.4919,3.4914,3.4888,3.4883,3.4857,3.4866,3.4866,3.4885,3.4837,3.489,3.4894,3.4896,3.4951,3.4959,3.4966,0,0,0,0,0,3.4989,3.5015,3.4998,3.4997,3.4978,3.4976,3.4974,3.4943,3.4921,3.4932,3.4912,3.4883,3.4884,3.4868,3.4867,3.4886,3.4889,3.4893,3.4896,3.4948,3.4958,3.4966,0,0,0,0,0,0,3.5047,3.5011,3.4992,3.501,3.4997,3.4967,3.4979,3.4955,3.4948,3.4943,3.4906,3.49,3.4915,3.4902,3.4884,3.4914,3.4882,3.4886,3.4922,3.4931,3.4938,3.4941,3.4837,0,0,0,0,0,3.5061,3.5063,3.5032,3.5051,3.5045,3.5014,3.5012,3.499,3.4974,3.4969,3.4949,3.4935,3.4932,3.4931,3.4927,3.495,3.4943,3.4963,3.497,3.4977,3.498,3.499,3.4999,3.491,3.491,3.491,0,0,3.5092,3.5072,3.5076,3.5062,3.5049,3.5051,3.5009,3.5014,3.5015,3.4969,3.4977,3.4963,3.4945,3.4962,3.4968,3.4951,3.5003,3.4981,3.4986,3.4986,3.4995,3.5003,3.5011,3.4912,3.4912,3.4912,0,0,3.5148,3.5134,3.5147,3.5136,3.5117,3.5096,3.51,3.5074,3.5062,3.507,3.5036,3.5037,3.5033,3.5022,3.5015,3.5069,3.5042,3.5068,3.5107,3.5117,3.5124,3.513,3.5149,3.5156,3.5072,3.5072,3.5072,0,3.5187,3.5189,3.5158,3.5164,3.5159,3.5118,3.5132,3.5122,3.5103,3.51,3.5082,3.5076,3.5061,3.5074,3.5087,3.5084,3.5087,3.507,3.5126,3.5132,3.5137,3.5154,3.5161,3.5075,3.5075,3.5074,3.5074,0,3.5239,3.5241,3.5255,3.5237,3.5234,3.5244,3.5213,3.5214,3.5193,3.5174,3.5182,3.5163,3.5154,3.5156,3.5135,3.5166,3.5156,3.5133,3.51,3.5149,3.5164,3.5171,3.508,3.5079,3.5078,3.5077,0,0,3.5328,3.5294,3.5299,3.5291,3.5268,3.5269,3.5278,3.5269,3.527,3.5259,3.5264,3.5262,3.524,3.5233,3.5211,3.5221,3.5263,3.5196,3.5195,3.5208,3.5296,3.5313,3.5321,3.5246,3.5247,3.5248,3.5297,0,3.5379,3.5391,3.5363,3.5382,3.5383,3.5345,3.5353,3.534,3.5323,3.5321,3.5303,3.5301,3.5273,3.5268,3.5276,3.5257,3.528,3.5253,3.5251,3.5251,3.5255,3.5329,3.5347,3.5394,3.5303,3.5304,3.5305,0,3.5439,3.5431,3.545,3.5426,3.5426,3.5433,3.5423,3.5422,3.5407,3.5394,3.5387,3.5361,3.5367,3.5337,3.5345,3.5327,3.5325,3.5315,3.5316,3.5314,3.528,3.5328,3.5408,3.5415,3.5314,3.5313,3.5312,0,3.5501,3.5495,3.5506,3.55,3.5473,3.5478,3.5467,3.545,3.5447,3.5439,3.5436,3.5429,3.5424,3.5419,3.5392,3.5372,3.5403,3.537,3.5392,3.5393,3.5399,3.5399,3.5479,3.54,3.54,3.54,3.54,0,3.556,3.5573,3.5533,3.554,3.5553,3.5521,3.5536,3.5521,3.5506,3.5509,3.5476,3.548,3.5444,3.5444,3.5423,3.5433,3.5431,3.542,3.5414,3.5423,3.5424,3.542,3.5415,3.5402,3.5401,3.5401,3.54,0,3.5631,3.5605,3.5614,3.5588,3.5581,3.5592,3.557,3.5575,3.5556,3.556,3.5559,3.553,3.5528,3.5501,3.5493,3.5478,3.5496,3.5485,3.5502,3.5497,3.552,3.5518,3.56,3.5609,3.5525,3.5526,3.5526,0,3.5669,3.5678,3.5653,3.5653,3.5643,3.5643,3.564,3.5609,3.5607,3.559,3.5597,3.5592,3.5587,3.5585,3.5563,3.5557,3.5544,3.5573,3.5543,3.5551,3.5543,3.5543,3.5543,3.5579,3.558,3.5581,3.5582,0,3.5739,3.5726,3.5723,3.5715,3.5712,3.5704,3.5695,3.5696,3.5663,3.5662,3.5659,3.5655,3.5647,3.5643,3.5633,3.5621,3.5596,3.5592,3.5596,3.5604,3.5613,3.5608,3.5518,3.559,3.5589,3.5588,3.5588,3.5588,3.5794,3.5801,3.5784,3.5781,3.5771,3.5763,3.5766,3.5748,3.5746,3.5737,3.5719,3.5719,3.5704,3.5688,3.5678,3.5678,3.5663,3.567,3.5671,3.5673,3.5677,3.5615,3.5676,3.5676,3.5676,3.5676,3.5675,0,3.5862,3.585,3.5848,3.5835,3.5833,3.5811,3.5799,3.5799,3.5799,3.5787,3.5783,3.578,3.5776,3.5754,3.5747,3.5751,3.5739,3.575,3.5749,3.5747,3.5692,3.5688,3.576,3.576,3.576,3.576,3.576,3.576,3.5897,3.5906,3.5892,3.5896,3.5884,3.5884,3.5879,3.5871,3.5861,3.586,3.5856,3.5842,3.5826,3.5818,3.5814,3.5807,3.5806,3.5821,3.581,3.5759,3.5751,3.5743,3.5739,3.5821,3.5821,3.5865,3.5866,3.5866]}]]